[[{"header":{"parameterUnit":"m.s-1","parameterCategory":1,"la1":30.2991,"la2":30.254,"lo1":-89.0895,"lo2":-89.0444,"dy":0.0017,"dx":0.0017,"nx":28,"ny":28,"refTime":"2023-10-13T21:00:00:Z","depth":0,"parameterNumber":2,"parameterNumberName":"U-component_of_WINDS"},"data":[0,0,0,0,0,0,0,0,0,0,0,0,0,0,0,0,0,0,0,0,0,0,0,0,0,0,0,0,0,0,0,0,0,0,0,0,0,0,0,0,0,0,0,0,0,0,0,0,0,0,0,0,0,0,0,0,0,0,3.4858,3.4859,0,3.4899,3.49,3.49,3.484,3.4838,3.4836,3.4834,3.4876,3.4879,3.4882,0,0,0,0,0,0,0,0,0,0,0,0,0,3.473,3.4733,3.4858,3.4859,3.4859,3.4899,3.49,3.49,3.4841,3.4838,3.4835,3.4833,3.4875,3.4879,3.4882,0,0,0,0,0,0,0,0,0,0,0,0,0,3.478,3.4734,3.4858,3.4834,3.4833,3.4899,3.49,3.49,3.4841,3.4838,3.4835,3.4832,3.4874,3.4878,3.4883,3.4974,0,0,3.4897,3.4899,0,0,0,0,0,0,0,0,3.4777,3.4785,3.4837,3.4836,3.4834,3.4861,3.487,3.4925,3.4842,3.4838,3.4834,3.483,3.4874,3.4878,3.4893,3.4976,3.4978,3.4897,3.49,3.4902,3.4903,0,0,0,0,0,0,0,3.4774,3.4783,3.4874,3.4838,3.4836,3.4822,3.4826,3.488,3.4873,3.4838,3.4834,3.4839,3.4872,3.4888,3.4893,3.4979,3.4897,3.4901,3.4904,3.4906,3.5144,3.5147,0,0,0,0,0,0,3.4773,3.478,3.4873,3.4876,3.4797,3.4827,3.4831,3.4856,3.4872,3.4872,3.4842,3.4836,3.4882,3.4888,3.4894,3.5005,3.4902,3.4906,3.4909,3.514,3.5144,3.5148,0,0,0,0,0,0,3.4771,3.4782,3.4871,3.4827,3.4837,3.4833,3.4861,3.4858,3.4874,3.4875,3.4874,3.486,3.488,3.4888,3.4956,3.5006,3.4908,3.4913,3.5136,3.5141,3.5146,3.5226,0,0,0,0,0,0,3.4767,3.4781,3.4816,3.4828,3.484,3.4932,3.4864,3.4861,3.4883,3.4876,3.4892,3.4891,3.4878,3.4949,3.496,3.501,3.4916,3.5131,3.5138,3.5145,3.5219,3.5234,3.5246,0,0,0,0,0,3.4763,3.4836,3.4818,3.4829,3.4882,3.4935,3.4941,3.4925,3.4887,3.4922,3.4923,3.4891,3.4998,3.4957,3.4969,3.5021,3.5128,3.5136,3.5144,3.5213,3.5231,3.5246,0,0,0,0,0,0,3.4828,3.4837,3.4817,3.4896,3.4915,3.4924,3.4968,3.4943,3.4974,3.4966,3.4944,3.4948,3.5022,3.5028,3.4981,3.5112,3.5057,3.5068,3.5105,3.5122,3.5136,3.5133,3.492,0,0,0,0,0,3.4852,3.4894,3.4899,3.4968,3.4979,3.4972,3.4994,3.498,3.4999,3.5007,3.5012,3.5032,3.5071,3.5097,3.5132,3.522,3.5224,3.5262,3.5275,3.5286,3.5296,3.5346,3.5364,3.5174,3.5174,3.5174,0,0,3.4901,3.4911,3.4938,3.4982,3.4995,3.504,3.4979,3.5028,3.5061,3.5014,3.5079,3.5084,3.5105,3.5185,3.5219,3.5192,3.535,3.5296,3.5305,3.5309,3.5356,3.5374,3.539,3.518,3.5179,3.5178,0,0,3.5014,3.5025,3.5085,3.5101,3.5122,3.5117,3.5132,3.5146,3.5148,3.5213,3.5179,3.5219,3.5285,3.5302,3.532,3.5443,3.5416,3.5455,3.5526,3.5574,3.5589,3.5603,3.5649,3.5665,3.5465,3.5465,3.5465,0,3.5073,3.5138,3.5119,3.5172,3.5193,3.5153,3.5215,3.523,3.5262,3.5278,3.5247,3.5332,3.5342,3.5427,3.5457,3.5472,3.5489,3.5453,3.5589,3.5602,3.5614,3.5658,3.5675,3.547,3.5469,3.5469,3.5468,0,3.521,3.5257,3.5303,3.5336,3.5362,3.5419,3.541,3.5438,3.5423,3.5422,3.549,3.5503,3.5541,3.556,3.5544,3.5643,3.5626,3.5592,3.5536,3.5637,3.5678,3.5694,3.5477,3.5475,3.5473,3.5472,0,0,3.5364,3.5388,3.5406,3.5422,3.5444,3.5479,3.5535,3.5574,3.56,3.5624,3.5672,3.573,3.57,3.572,3.5707,3.5749,3.585,3.5711,3.5711,3.5738,3.5962,3.5988,3.6008,3.5831,3.5834,3.5837,3.5961,0,3.5479,3.5576,3.5562,3.5655,3.5699,3.5664,3.5713,3.5733,3.5734,3.5772,3.5773,3.5816,3.5772,3.5785,3.5825,3.5829,3.5894,3.5819,3.5877,3.5879,3.5874,3.6029,3.6056,3.6172,3.5977,3.5979,3.5981,0,3.5624,3.5656,3.5754,3.5772,3.579,3.5834,3.587,3.5906,3.5929,3.5927,3.5951,3.5931,3.5989,3.5932,3.6013,3.5962,3.5985,3.5991,3.5995,3.6,3.5937,3.604,3.6209,3.6227,3.6006,3.6004,3.6002,0,3.573,3.5796,3.5864,3.5879,3.5901,3.5933,3.5944,3.5963,3.5988,3.602,3.6036,3.6074,3.6095,3.6125,3.6116,3.6075,3.62,3.6142,3.6202,3.6202,3.623,3.6228,3.6406,3.6242,3.6242,3.6242,3.6241,0,3.586,3.5922,3.5912,3.5954,3.6024,3.6008,3.6077,3.6084,3.6102,3.6146,3.6117,3.6159,3.6144,3.6185,3.6179,3.6248,3.6257,3.6259,3.6257,3.6262,3.6263,3.6278,3.627,3.6246,3.6245,3.6245,3.6244,0,3.5989,3.5985,3.6057,3.6073,3.6079,3.613,3.6144,3.6184,3.6184,3.624,3.6252,3.6253,3.6301,3.6295,3.6347,3.6343,3.643,3.6417,3.6423,3.6421,3.6482,3.6477,3.6677,3.6703,3.6521,3.6523,3.6524,0,3.6073,3.612,3.6142,3.617,3.6183,3.6227,3.6254,3.624,3.6269,3.63,3.6337,3.6383,3.6418,3.6497,3.6502,3.6543,3.6532,3.66,3.6538,3.6544,3.6536,3.6534,3.654,3.6612,3.6614,3.6616,3.6617,0,3.6223,3.6219,3.6258,3.6297,3.6329,3.6359,3.6386,3.641,3.64,3.6434,3.6483,3.651,3.6566,3.6612,3.6652,3.6663,3.664,3.6636,3.6653,3.666,3.6662,3.6664,3.6458,3.6632,3.663,3.6629,3.6629,3.6628,3.6333,3.6375,3.6398,3.6443,3.6462,3.6488,3.6528,3.6534,3.6575,3.6619,3.6609,3.6665,3.6689,3.674,3.6756,3.6801,3.6776,3.6799,3.6806,3.6812,3.682,3.6654,3.6808,3.6807,3.6807,3.6806,3.6806,0,3.6484,3.6497,3.6539,3.6578,3.6614,3.6589,3.6618,3.665,3.67,3.6724,3.6761,3.6819,3.6864,3.6874,3.6918,3.6952,3.6943,3.6964,3.6962,3.6966,3.6838,3.6821,3.6972,3.6972,3.6972,3.6971,3.6971,3.6971,3.6567,3.6637,3.6636,3.6716,3.6729,3.6784,3.6804,3.6829,3.6849,3.6915,3.6953,3.6959,3.6979,3.7024,3.7066,3.7068,3.7086,3.7113,3.7111,3.6991,3.6975,3.6959,3.6942,3.7116,3.7116,3.7235,3.7236,3.7237]},{"header":{"parameterUnit":"m.s-1","parameterCategory":1,"la1":30.2991,"la2":30.254,"lo1":-89.0895,"lo2":-89.0444,"dy":0.0017,"dx":0.0017,"nx":28,"ny":28,"refTime":"2023-10-13T21:00:00:Z","depth":0,"parameterNumber":3,"parameterNumberName":"V-component_of_WINDS"},"data":[0,0,0,0,0,0,0,0,0,0,0,0,0,0,0,0,0,0,0,0,0,0,0,0,0,0,0,0,0,0,0,0,0,0,0,0,0,0,0,0,0,0,0,0,0,0,0,0,0,0,0,0,0,0,0,0,0,0,-3.3525,-3.3526,0,-3.3589,-3.359,-3.359,-3.36,-3.36,-3.3599,-3.3599,-3.366,-3.3662,-3.3665,0,0,0,0,0,0,0,0,0,0,0,0,0,-3.3409,-3.3411,-3.3525,-3.3526,-3.3527,-3.3589,-3.359,-3.3591,-3.36,-3.36,-3.3599,-3.3598,-3.366,-3.3662,-3.3665,0,0,0,0,0,0,0,0,0,0,0,0,0,-3.3465,-3.3412,-3.3525,-3.3539,-3.3541,-3.3589,-3.359,-3.3591,-3.3601,-3.36,-3.3599,-3.3598,-3.3659,-3.3662,-3.3665,-3.3702,0,0,-3.3675,-3.3676,0,0,0,0,0,0,0,0,-3.3462,-3.3469,-3.3536,-3.3538,-3.3541,-3.3586,-3.3571,-3.3628,-3.3601,-3.3578,-3.3599,-3.3598,-3.3636,-3.3641,-3.3655,-3.3705,-3.3707,-3.3675,-3.3677,-3.3679,-3.368,0,0,0,0,0,0,0,-3.3458,-3.3466,-3.355,-3.3537,-3.354,-3.3542,-3.3549,-3.3582,-3.3611,-3.358,-3.3581,-3.3588,-3.3637,-3.3652,-3.3656,-3.3708,-3.3675,-3.3678,-3.368,-3.3681,-3.3791,-3.3792,0,0,0,0,0,0,-3.3452,-3.3463,-3.3548,-3.3552,-3.3498,-3.3544,-3.3552,-3.3572,-3.361,-3.3616,-3.3589,-3.3589,-3.3646,-3.3652,-3.3658,-3.3704,-3.3679,-3.3682,-3.3684,-3.379,-3.3792,-3.3793,0,0,0,0,0,0,-3.3449,-3.3459,-3.3546,-3.3508,-3.3519,-3.3547,-3.357,-3.3574,-3.3588,-3.3617,-3.3622,-3.3599,-3.3646,-3.3654,-3.3691,-3.3706,-3.3683,-3.3686,-3.3789,-3.3791,-3.3792,-3.3794,0,0,0,0,0,0,-3.3446,-3.3458,-3.3473,-3.3508,-3.3521,-3.3578,-3.3571,-3.3576,-3.3594,-3.3595,-3.3628,-3.3633,-3.3646,-3.3686,-3.3694,-3.371,-3.3689,-3.3788,-3.379,-3.3792,-3.3793,-3.3796,-3.3798,0,0,0,0,0,-3.3442,-3.347,-3.3474,-3.3484,-3.354,-3.3579,-3.3586,-3.3602,-3.3596,-3.361,-3.3629,-3.3632,-3.3703,-3.369,-3.3699,-3.3716,-3.3787,-3.3789,-3.3791,-3.3792,-3.3795,-3.3798,0,0,0,0,0,0,-3.3435,-3.3475,-3.3479,-3.3521,-3.3546,-3.3581,-3.36,-3.3605,-3.3632,-3.3631,-3.3649,-3.3656,-3.3692,-3.3708,-3.3693,-3.3754,-3.3745,-3.3749,-3.3742,-3.3745,-3.3748,-3.3742,-3.3691,0,0,0,0,0,-3.3438,-3.3467,-3.3501,-3.3534,-3.3547,-3.3571,-3.3588,-3.3599,-3.3626,-3.3636,-3.3658,-3.3683,-3.3711,-3.3729,-3.3757,-3.3796,-3.3803,-3.3812,-3.3814,-3.3816,-3.3819,-3.3841,-3.3845,-3.38,-3.38,-3.38,0,0,-3.3445,-3.3471,-3.3488,-3.3533,-3.3554,-3.3583,-3.358,-3.361,-3.3632,-3.364,-3.3677,-3.3694,-3.3723,-3.3762,-3.3779,-3.3776,-3.3834,-3.3819,-3.382,-3.3822,-3.3844,-3.3848,-3.3852,-3.3801,-3.3801,-3.3801,0,0,-3.3472,-3.3495,-3.3525,-3.3547,-3.358,-3.3596,-3.3603,-3.3637,-3.3649,-3.3687,-3.3694,-3.3719,-3.3767,-3.3788,-3.3805,-3.3841,-3.3844,-3.385,-3.3862,-3.3883,-3.3887,-3.389,-3.3902,-3.3907,-3.3853,-3.3853,-3.3853,0,-3.3476,-3.3521,-3.354,-3.357,-3.359,-3.3601,-3.3631,-3.3651,-3.369,-3.3703,-3.3699,-3.376,-3.3781,-3.3824,-3.3833,-3.3846,-3.3854,-3.3845,-3.3885,-3.3888,-3.3892,-3.3903,-3.3908,-3.3853,-3.3853,-3.3853,-3.3853,0,-3.3524,-3.3555,-3.3576,-3.3615,-3.3637,-3.3667,-3.3689,-3.3709,-3.3718,-3.3734,-3.3772,-3.3797,-3.383,-3.3842,-3.385,-3.3886,-3.3883,-3.3882,-3.3873,-3.3896,-3.3907,-3.3912,-3.3854,-3.3854,-3.3853,-3.3853,0,0,-3.3548,-3.3598,-3.3605,-3.3623,-3.3661,-3.3685,-3.3715,-3.3749,-3.3765,-3.3793,-3.3818,-3.386,-3.3859,-3.3878,-3.3889,-3.3907,-3.3934,-3.3904,-3.3905,-3.3908,-3.3975,-3.3975,-3.398,-3.3937,-3.3938,-3.3939,-3.3972,0,-3.3579,-3.3635,-3.3653,-3.3699,-3.3728,-3.3739,-3.3766,-3.3791,-3.3808,-3.3833,-3.3851,-3.388,-3.3877,-3.3889,-3.3908,-3.3927,-3.3947,-3.3925,-3.3959,-3.3961,-3.3951,-3.3986,-3.3986,-3.4017,-3.3977,-3.3978,-3.3978,0,-3.3622,-3.3652,-3.3701,-3.3736,-3.3749,-3.3772,-3.3805,-3.383,-3.3859,-3.3869,-3.3892,-3.3901,-3.3933,-3.3923,-3.3966,-3.395,-3.3966,-3.3977,-3.3979,-3.3982,-3.397,-3.3989,-3.4027,-3.4031,-3.3986,-3.3985,-3.3985,0,-3.3634,-3.3686,-3.3722,-3.3737,-3.3779,-3.3795,-3.3813,-3.3841,-3.3861,-3.3889,-3.3901,-3.3932,-3.3949,-3.3972,-3.399,-3.3981,-3.4031,-3.4023,-3.404,-3.4039,-3.4049,-3.4048,-3.4089,-3.406,-3.406,-3.406,-3.406,0,-3.3666,-3.3695,-3.3728,-3.375,-3.3783,-3.3804,-3.3836,-3.3854,-3.388,-3.3905,-3.3917,-3.394,-3.3962,-3.3988,-3.4002,-3.4035,-3.4043,-3.4051,-3.4054,-3.405,-3.4049,-3.4059,-3.4057,-3.4062,-3.4061,-3.4061,-3.4061,0,-3.3683,-3.3706,-3.3747,-3.3783,-3.3793,-3.3816,-3.3847,-3.3869,-3.3886,-3.3918,-3.3927,-3.3954,-3.3985,-3.4005,-3.4044,-3.4054,-3.409,-3.4093,-3.4081,-3.4082,-3.4097,-3.4095,-3.4146,-3.4153,-3.4121,-3.4121,-3.4121,0,-3.3702,-3.3725,-3.3765,-3.3783,-3.3802,-3.3831,-3.3851,-3.3872,-3.3893,-3.3928,-3.3945,-3.3978,-3.4005,-3.4054,-3.4077,-3.4107,-3.411,-3.4126,-3.4114,-3.4109,-3.4109,-3.4107,-3.4109,-3.4127,-3.4127,-3.4127,-3.4128,0,-3.3732,-3.3743,-3.3772,-3.3806,-3.383,-3.3857,-3.3884,-3.3898,-3.3924,-3.3946,-3.3979,-3.4,-3.4041,-3.4073,-3.4105,-3.4122,-3.4129,-3.4131,-3.4137,-3.4132,-3.4123,-3.4127,-3.4085,-3.413,-3.4129,-3.4129,-3.4129,-3.4129,-3.375,-3.3772,-3.3803,-3.3835,-3.3858,-3.3884,-3.3906,-3.3927,-3.3955,-3.3991,-3.4002,-3.4036,-3.4065,-3.4109,-3.4127,-3.4154,-3.4152,-3.416,-3.4161,-3.4163,-3.4163,-3.412,-3.416,-3.416,-3.416,-3.416,-3.416,0,-3.3781,-3.3802,-3.3832,-3.387,-3.3895,-3.3901,-3.3931,-3.3952,-3.3982,-3.4009,-3.4036,-3.4074,-3.4105,-3.4131,-3.4162,-3.4179,-3.4182,-3.4186,-3.4185,-3.4188,-3.4163,-3.4155,-3.4183,-3.4183,-3.4183,-3.4183,-3.4183,-3.4183,-3.3799,-3.3836,-3.385,-3.3898,-3.3919,-3.3954,-3.397,-3.3993,-3.4015,-3.4057,-3.4084,-3.4101,-3.4127,-3.4161,-3.419,-3.4196,-3.4207,-3.421,-3.4217,-3.4193,-3.419,-3.4188,-3.418,-3.4213,-3.4213,-3.424,-3.424,-3.4241]}]]